EW0860 Weather Reports


Display with metric or nautical units.
time (UTC)temp
F
wind
direction
speed
MPH
gust
MPH
rain 1hr
in
rain 24hr
in
rain mn
in
humidity
%
barometer
mb
20260901023057 81 224 0.0 0.0 0.00 0.00 0.00 72 1008.8
20260901021555 83 224 0.0 0.0 0.00 0.00 0.00 71 1008.5
20260901020055 83 224 0.0 0.0 0.00 0.00 0.00 71 1008.4
20260901014605 84 224 0.0 0.0 0.00 0.00 0.00 71 1008.4
20260901013052 85 224 0.0 0.0 0.00 0.00 0.00 68 1008.2
20260901011553 87 224 0.0 0.0 0.00 0.00 0.00 66 1008.1
20260901010053 89 224 0.0 1.0 0.00 0.00 0.00 64 1008.1
20260901004605 91 224 0.0 1.0 0.00 0.00 0.00 61 1008.0
20260901003054 94 224 0.0 1.0 0.00 0.00 0.00 56 1007.9
20260901001557 96 224 0.0 1.0 0.00 0.00 0.00 53 1008.0
20260831234550 98 224 0.0 1.0 0.00 0.00 0.00 50 1007.9
20260831233050 99 224 0.0 1.0 0.00 0.00 0.00 50 1007.9
20260831231551 100 224 0.0 2.0 0.00 0.00 0.00 44 1007.8
20260831230048 100 224 0.0 3.0 0.00 0.00 0.00 46 1007.8
20260831224546 100 224 1.0 4.0 0.00 0.00 0.00 44 1007.9
20260831223047 100 186 1.0 5.0 0.00 0.00 0.00 44 1007.9
20260831221546 100 188 2.0 5.0 0.00 0.00 0.00 42 1008.0
20260831220044 101 283 0.0 5.0 0.00 0.00 0.00 42 1008.0
20260831214542 99 300 2.0 7.0 0.00 0.00 0.00 44 1008.1
20260831213042 100 257 4.0 8.0 0.00 0.00 0.00 41 1008.1
20260831211543 100 216 0.0 5.0 0.00 0.00 0.00 45 1008.1
20260831210038 99 254 2.0 8.0 0.00 0.00 0.00 45 1008.3
20260831204541 99 310 3.0 8.0 0.00 0.00 0.00 44 1008.3
20260831203035 98 239 3.0 9.0 0.00 0.00 0.00 45 1008.6
20260831201534 97 236 5.0 12.0 0.00 0.00 0.00 45 1008.7
20260831200033 98 292 3.0 8.0 0.00 0.00 0.00 46 1008.7
20260831194532 98 224 6.0 10.0 0.00 0.00 0.00 45 1008.7
20260831193040 97 219 1.0 8.0 0.00 0.00 0.00 46 1008.7
20260831191530 97 199 0.0 7.0 0.00 0.00 0.00 47 1008.7
20260831190040 96 226 2.0 13.0 0.00 0.00 0.00 47 1008.7
20260831184525 96 97 3.0 8.0 0.00 0.00 0.00 49 1008.8
20260831183024 96 231 4.0 12.0 0.00 0.00 0.00 48 1008.8
20260831181523 95 236 4.0 8.0 0.00 0.00 0.00 50 1009.1
20260831180021 94 226 4.0 8.0 0.00 0.00 0.00 51 1009.1
20260831174519 94 268 2.0 7.0 0.00 0.00 0.00 50 1009.4
20260831173019 92 208 0.0 10.0 0.00 0.00 0.00 54 1009.2
20260831171515 92 231 4.0 9.0 0.00 0.00 0.00 52 1009.3
20260831170014 91 226 5.0 8.0 0.00 0.00 0.00 54 1009.4
20260831164517 90 193 3.0 7.0 0.00 0.00 0.00 56 1009.4
20260831163010 89 204 2.0 9.0 0.00 0.00 0.00 57 1009.5
20260831161503 88 270 2.0 8.0 0.00 0.00 0.00 59 1009.6
20260831154613 85 204 4.0 10.0 0.00 0.00 0.00 61 1009.7
20260831153112 84 214 1.0 6.0 0.00 0.00 0.00 63 1009.6
20260831151607 84 208 1.0 8.0 0.00 0.00 0.00 64 1009.5
20260831144559 82 227 2.0 8.0 0.00 0.00 0.00 66 1009.5
20260831143056 81 176 3.0 9.0 0.00 0.00 0.00 65 1009.7
20260831141558 80 243 2.0 5.0 0.00 0.00 0.00 67 1009.9
20260831140055 80 224 0.0 9.0 0.00 0.00 0.00 67 1009.8
20260831134600 79 218 1.0 4.0 0.00 0.00 0.00 67 1009.7
20260831133102 79 193 3.0 11.0 0.00 0.00 0.00 66 1009.6
20260831131557 79 253 2.0 8.0 0.00 0.00 0.00 66 1009.2
20260831130050 79 231 3.0 9.0 0.00 0.00 0.00 66 1009.3
20260831124549 79 260 1.0 7.0 0.00 0.00 0.00 65 1009.4
20260831123048 78 209 2.0 8.0 0.00 0.00 0.00 66 1009.0
20260831121546 78 228 2.0 11.0 0.00 0.00 0.00 65 1009.0
20260831120046 78 111 3.0 10.0 0.00 0.00 0.00 64 1008.7
20260831114543 79 220 3.0 7.0 0.00 0.00 0.00 64 1008.7
20260831113043 79 226 2.0 9.0 0.00 0.00 0.00 63 1008.4
20260831111543 79 207 2.0 6.0 0.00 0.00 0.00 63 1008.6
20260831110038 79 201 0.0 8.0 0.00 0.00 0.00 63 1008.4
20260831104549 79 162 0.0 5.0 0.00 0.00 0.00 62 1008.4
20260831103033 80 126 1.0 10.0 0.00 0.00 0.00 62 1008.2
20260831101534 80 224 1.0 7.0 0.00 0.00 0.00 61 1008.2
20260831100029 81 139 2.0 7.0 0.00 0.00 0.00 60 1008.1
20260831094537 81 89 1.0 7.0 0.00 0.00 0.00 59 1007.9
20260831093031 81 174 0.0 10.0 0.00 0.00 0.00 58 1007.7
20260831091537 81 107 2.0 7.0 0.00 0.00 0.00 59 1007.6
20260831090023 81 164 1.0 7.0 0.00 0.00 0.00 57 1007.5
20260831084542 82 93 2.0 5.0 0.00 0.00 0.00 56 1007.4
20260831083017 83 185 1.0 8.0 0.00 0.00 0.00 55 1007.4
20260831081516 83 297 1.0 8.0 0.00 0.00 0.00 55 1007.3
20260831080032 84 118 2.0 8.0 0.00 0.00 0.00 54 1007.3
20260831074522 84 189 3.0 12.0 0.00 0.00 0.00 54 1007.3
20260831073013 84 116 2.0 9.0 0.00 0.00 0.00 53 1007.2
20260831071509 85 267 2.0 7.0 0.00 0.00 0.00 53 1007.1
20260831070009 85 277 1.0 7.0 0.00 0.00 0.00 52 1007.2
20260831064507 85 206 1.0 4.0 0.00 0.00 0.00 52 1007.1
20260831063004 86 218 1.0 7.0 0.00 0.00 0.00 52 1007.1
20260831061501 86 116 3.0 9.0 0.00 0.00 0.00 51 1007.0
20260831060110 86 122 3.0 9.0 0.00 0.00 0.00 51 1006.8
20260831054559 86 121 3.0 7.0 0.00 0.00 0.00 51 1006.8
20260831053102 87 125 2.0 10.0 0.00 0.00 0.00 51 1006.7
20260831051557 87 148 1.0 11.0 0.00 0.00 0.00 51 1006.6
20260831050055 87 103 3.0 9.0 0.00 0.00 0.00 52 1006.5
20260831044555 87 187 4.0 10.0 0.00 0.00 0.00 51 1006.5
20260831043054 87 179 1.0 7.0 0.00 0.00 0.00 52 1006.4
20260831041554 87 169 2.0 5.0 0.00 0.00 0.00 51 1006.4
20260831040053 87 118 2.0 8.0 0.00 0.00 0.00 52 1006.4
20260831034602 87 85 1.0 6.0 0.00 0.00 0.00 52 1006.4
20260831033058 87 162 1.0 8.0 0.00 0.00 0.00 53 1006.4
20260831031552 87 129 1.0 6.0 0.00 0.00 0.00 52 1006.4
20260831030055 87 119 1.0 8.0 0.00 0.00 0.00 53 1006.4
20260831024558 87 70 1.0 4.0 0.00 0.00 0.00 53 1006.3